[[{"header":{"parameterUnit":"m.s-1","parameterCategory":1,"la1":30.2991,"la2":30.254,"lo1":-89.0895,"lo2":-89.0444,"dy":0.0017,"dx":0.0017,"nx":28,"ny":28,"refTime":"2024-06-04T21:00:00:Z","depth":0,"parameterNumber":2,"parameterNumberName":"U-component_of_WINDS"},"data":[0,0,0,0,0,0,0,0,0,0,0,0,0,0,0,0,0,0,0,0,0,0,0,0,0,0,0,0,0,0,0,0,0,0,0,0,0,0,0,0,0,0,0,0,0,0,0,0,0,0,0,0,0,0,0,0,0,0,-0.6209,-0.6208,0,-0.6146,-0.6145,-0.6145,-0.6115,-0.6115,-0.6115,-0.6115,-0.6052,-0.605,-0.6048,0,0,0,0,0,0,0,0,0,0,0,0,0,-0.6304,-0.6303,-0.6209,-0.6208,-0.6207,-0.6146,-0.6145,-0.6145,-0.6115,-0.6115,-0.6115,-0.6115,-0.6052,-0.605,-0.6048,0,0,0,0,0,0,0,0,0,0,0,0,0,-0.6254,-0.6302,-0.6209,-0.6185,-0.6182,-0.6146,-0.6145,-0.6144,-0.6115,-0.6115,-0.6115,-0.6115,-0.6053,-0.6051,-0.6048,-0.6031,0,0,-0.604,-0.6039,0,0,0,0,0,0,0,0,-0.6257,-0.6251,-0.6189,-0.6187,-0.6184,-0.6139,-0.6156,-0.6106,-0.6115,-0.6141,-0.6115,-0.6115,-0.6081,-0.6076,-0.6064,-0.6028,-0.6025,-0.604,-0.6038,-0.6037,-0.6036,0,0,0,0,0,0,0,-0.6261,-0.6254,-0.6184,-0.6189,-0.6185,-0.6178,-0.6171,-0.6146,-0.6111,-0.6138,-0.6136,-0.6129,-0.6079,-0.6067,-0.6062,-0.6024,-0.604,-0.6038,-0.6036,-0.6035,-0.5973,-0.5973,0,0,0,0,0,0,-0.6268,-0.6257,-0.6186,-0.6182,-0.6221,-0.6176,-0.6169,-0.6153,-0.6111,-0.6105,-0.6129,-0.6128,-0.6071,-0.6065,-0.606,-0.6038,-0.6037,-0.6035,-0.6033,-0.5973,-0.5973,-0.5973,0,0,0,0,0,0,-0.627,-0.6262,-0.6189,-0.6219,-0.6209,-0.6175,-0.6157,-0.6152,-0.6139,-0.6104,-0.6098,-0.6123,-0.6071,-0.6064,-0.6039,-0.6035,-0.6034,-0.6031,-0.5973,-0.5973,-0.5973,-0.5994,0,0,0,0,0,0,-0.6273,-0.6263,-0.6256,-0.6219,-0.6207,-0.6168,-0.6157,-0.615,-0.6135,-0.6133,-0.6097,-0.6091,-0.607,-0.6043,-0.6036,-0.6032,-0.6029,-0.5973,-0.5973,-0.5973,-0.5993,-0.5994,-0.5995,0,0,0,0,0,-0.6276,-0.6264,-0.6255,-0.6247,-0.6197,-0.6168,-0.6161,-0.6138,-0.6135,-0.6127,-0.6105,-0.6092,-0.6037,-0.604,-0.6033,-0.6028,-0.5973,-0.5973,-0.5973,-0.5993,-0.5994,-0.5995,0,0,0,0,0,0,-0.6301,-0.6259,-0.6249,-0.6224,-0.62,-0.6163,-0.6153,-0.614,-0.6116,-0.6115,-0.6087,-0.608,-0.6057,-0.604,-0.6045,-0.601,-0.6004,-0.6002,-0.6022,-0.6023,-0.6024,-0.6028,-0.6027,0,0,0,0,0,-0.6304,-0.6283,-0.6247,-0.6228,-0.6217,-0.6187,-0.6173,-0.6157,-0.6131,-0.6121,-0.6097,-0.6073,-0.605,-0.6035,-0.6012,-0.5991,-0.5983,-0.5984,-0.5985,-0.5986,-0.5984,-0.5972,-0.5972,-0.5972,-0.5972,-0.5972,0,0,-0.6309,-0.6283,-0.6271,-0.6233,-0.6212,-0.6191,-0.6179,-0.6157,-0.6142,-0.6118,-0.6093,-0.6075,-0.6046,-0.6022,-0.6011,-0.6007,-0.5983,-0.5985,-0.5986,-0.5984,-0.5972,-0.5972,-0.5972,-0.5972,-0.5972,-0.5972,0,0,-0.6307,-0.6285,-0.6268,-0.6248,-0.6217,-0.6197,-0.6193,-0.6159,-0.6146,-0.612,-0.6102,-0.6084,-0.6045,-0.6025,-0.601,-0.6003,-0.599,-0.5997,-0.6002,-0.5991,-0.5991,-0.599,-0.5988,-0.5988,-0.5996,-0.5996,-0.5996,0,-0.6317,-0.6285,-0.626,-0.624,-0.6224,-0.6202,-0.6184,-0.6166,-0.6129,-0.6119,-0.6116,-0.6067,-0.6046,-0.6018,-0.6017,-0.6005,-0.6,-0.6,-0.5992,-0.5992,-0.5992,-0.5989,-0.5988,-0.5997,-0.5996,-0.5996,-0.5996,0,-0.6299,-0.6277,-0.6267,-0.6232,-0.6215,-0.6196,-0.6169,-0.6155,-0.6141,-0.6123,-0.6098,-0.6072,-0.6044,-0.6036,-0.6022,-0.6007,-0.6006,-0.5998,-0.5991,-0.5993,-0.599,-0.5989,-0.5998,-0.5998,-0.5997,-0.5997,0,0,-0.631,-0.6263,-0.6259,-0.6244,-0.6209,-0.6192,-0.6173,-0.6145,-0.6134,-0.611,-0.6093,-0.6062,-0.6055,-0.6038,-0.6022,-0.6012,-0.6008,-0.6005,-0.6004,-0.6007,-0.5991,-0.5997,-0.5996,-0.6,-0.6,-0.5999,-0.5993,0,-0.6303,-0.6267,-0.6245,-0.6218,-0.6198,-0.6178,-0.6161,-0.6138,-0.6121,-0.6102,-0.6083,-0.6061,-0.6053,-0.6042,-0.6032,-0.6011,-0.6005,-0.6011,-0.5985,-0.5984,-0.5992,-0.5994,-0.6,-0.5995,-0.5992,-0.5992,-0.5991,0,-0.629,-0.6267,-0.6238,-0.6206,-0.6197,-0.6183,-0.6156,-0.6138,-0.6112,-0.61,-0.6082,-0.6066,-0.6046,-0.6042,-0.6014,-0.6019,-0.6008,-0.5996,-0.5995,-0.5991,-0.5987,-0.599,-0.5993,-0.5992,-0.5989,-0.599,-0.599,0,-0.6302,-0.6263,-0.6241,-0.6228,-0.619,-0.6181,-0.6165,-0.6139,-0.6124,-0.6102,-0.6092,-0.6068,-0.6054,-0.6036,-0.6014,-0.6013,-0.5989,-0.5983,-0.5978,-0.5979,-0.5974,-0.5974,-0.5974,-0.5967,-0.5967,-0.5967,-0.5967,0,-0.6296,-0.628,-0.6245,-0.6232,-0.6213,-0.6188,-0.617,-0.6153,-0.613,-0.6114,-0.6095,-0.6079,-0.6052,-0.6033,-0.6016,-0.5996,-0.599,-0.598,-0.5976,-0.5982,-0.5983,-0.5973,-0.5973,-0.5966,-0.5966,-0.5966,-0.5967,0,-0.6305,-0.6281,-0.6256,-0.6223,-0.6214,-0.6202,-0.6173,-0.616,-0.6142,-0.6121,-0.6115,-0.6087,-0.6064,-0.6041,-0.601,-0.5999,-0.598,-0.5974,-0.5988,-0.5986,-0.5983,-0.5983,-0.5976,-0.5974,-0.5968,-0.5968,-0.5968,0,-0.6303,-0.629,-0.6255,-0.6242,-0.6227,-0.6207,-0.6192,-0.6168,-0.6153,-0.6124,-0.6114,-0.609,-0.607,-0.6035,-0.6012,-0.5989,-0.5982,-0.5981,-0.5979,-0.5985,-0.5982,-0.5983,-0.5982,-0.5982,-0.5982,-0.5982,-0.5983,0,-0.6302,-0.6291,-0.627,-0.6245,-0.6228,-0.6207,-0.6186,-0.6177,-0.6149,-0.6134,-0.6111,-0.6095,-0.6064,-0.6041,-0.6016,-0.6,-0.5987,-0.5984,-0.5982,-0.5987,-0.5996,-0.5991,-0.5991,-0.5984,-0.5984,-0.5984,-0.5984,-0.5984,-0.6305,-0.6293,-0.6267,-0.6244,-0.6226,-0.6207,-0.6192,-0.6173,-0.6153,-0.6126,-0.6114,-0.6091,-0.6066,-0.6031,-0.6016,-0.5998,-0.5994,-0.5991,-0.599,-0.5989,-0.5991,-0.6,-0.5993,-0.5993,-0.5993,-0.5993,-0.5993,0,-0.6303,-0.6286,-0.6265,-0.6236,-0.6219,-0.6208,-0.6185,-0.6171,-0.6151,-0.6129,-0.611,-0.6084,-0.6062,-0.6038,-0.6014,-0.6005,-0.5998,-0.5999,-0.6,-0.5996,-0.5995,-0.6,-0.6005,-0.6005,-0.6005,-0.6005,-0.6005,-0.6005,-0.63,-0.6278,-0.6265,-0.6234,-0.6217,-0.6194,-0.6182,-0.6164,-0.6147,-0.6119,-0.61,-0.6085,-0.6063,-0.6038,-0.6017,-0.6011,-0.6003,-0.6006,-0.5998,-0.5997,-0.5996,-0.5995,-0.5999,-0.6005,-0.6005,-0.6,-0.6,-0.6]},{"header":{"parameterUnit":"m.s-1","parameterCategory":1,"la1":30.2991,"la2":30.254,"lo1":-89.0895,"lo2":-89.0444,"dy":0.0017,"dx":0.0017,"nx":28,"ny":28,"refTime":"2024-06-04T21:00:00:Z","depth":0,"parameterNumber":3,"parameterNumberName":"V-component_of_WINDS"},"data":[0,0,0,0,0,0,0,0,0,0,0,0,0,0,0,0,0,0,0,0,0,0,0,0,0,0,0,0,0,0,0,0,0,0,0,0,0,0,0,0,0,0,0,0,0,0,0,0,0,0,0,0,0,0,0,0,0,0,6.461,6.4609,0,6.4545,6.4544,6.4543,6.4463,6.4462,6.4461,6.446,6.439,6.4389,6.4389,0,0,0,0,0,0,0,0,0,0,0,0,0,6.4664,6.4664,6.461,6.4609,6.4608,6.4545,6.4544,6.4543,6.4464,6.4462,6.446,6.4459,6.439,6.439,6.4389,0,0,0,0,0,0,0,0,0,0,0,0,0,6.4624,6.4663,6.461,6.4561,6.4556,6.4545,6.4544,6.4543,6.4464,6.4462,6.446,6.4458,6.4391,6.439,6.4389,6.442,0,0,6.4385,6.4385,0,0,0,0,0,0,0,0,6.4626,6.4622,6.4569,6.4564,6.4559,6.451,6.4537,6.4501,6.4464,6.4499,6.446,6.4457,6.4431,6.4427,6.4419,6.4416,6.4413,6.4385,6.4385,6.4384,6.4384,0,0,0,0,0,0,0,6.4629,6.4624,6.4584,6.4568,6.4562,6.4542,6.4534,6.453,6.4476,6.4496,6.449,6.4483,6.4428,6.442,6.4416,6.4412,6.4385,6.4384,6.4384,6.4383,6.4434,6.4436,0,0,0,0,0,0,6.464,6.4627,6.4586,6.4582,6.4589,6.4542,6.4534,6.4528,6.4476,6.4467,6.4485,6.448,6.4423,6.4418,6.4414,6.4447,6.4384,6.4383,6.4383,6.4432,6.4434,6.4436,0,0,0,0,0,0,6.4641,6.4637,6.4589,6.4603,6.4595,6.4543,6.4537,6.4527,6.4519,6.4468,6.4458,6.4486,6.4421,6.4415,6.4419,6.4444,6.4383,6.4382,6.4429,6.4432,6.4435,6.4515,0,0,0,0,0,0,6.4643,6.4638,6.4649,6.4604,6.4595,6.4596,6.4539,6.4527,6.4518,6.451,6.4467,6.4458,6.4419,6.4421,6.4418,6.4441,6.4381,6.4427,6.4431,6.4434,6.451,6.452,6.4529,0,0,0,0,0,6.4645,6.4673,6.465,6.4646,6.4608,6.4597,6.4592,6.4548,6.452,6.4531,6.4499,6.4459,6.4442,6.4422,6.4418,6.4441,6.4425,6.443,6.4434,6.4505,6.4518,6.4529,0,0,0,0,0,0,6.4721,6.4666,6.464,6.4654,6.4631,6.4584,6.4596,6.4563,6.4546,6.454,6.4485,6.4476,6.4487,6.4464,6.4444,6.4469,6.4428,6.4432,6.4483,6.4495,6.4505,6.4509,6.438,0,0,0,0,0,6.474,6.4736,6.4688,6.4705,6.4695,6.4648,6.4642,6.461,6.4584,6.4573,6.4541,6.4516,6.4505,6.4499,6.4486,6.4507,6.4496,6.452,6.453,6.4538,6.4542,6.4552,6.4563,6.4451,6.4451,6.4451,0,0,6.4778,6.4747,6.4748,6.472,6.4698,6.4696,6.464,6.4639,6.4637,6.4572,6.4575,6.4551,6.452,6.4533,6.4536,6.4514,6.4571,6.4544,6.4551,6.455,6.4558,6.4568,6.4578,6.4454,6.4453,6.4453,0,0,6.4845,6.4822,6.4834,6.4815,6.4783,6.4752,6.4755,6.4714,6.4696,6.4697,6.465,6.4646,6.4628,6.4608,6.4595,6.4659,6.4622,6.4656,6.4706,6.4716,6.4725,6.4733,6.4755,6.4764,6.466,6.466,6.466,0,6.4896,6.489,6.4845,6.4847,6.4837,6.478,6.4792,6.4775,6.4741,6.4735,6.4711,6.4689,6.4663,6.4671,6.4687,6.4679,6.4681,6.466,6.4728,6.4735,6.4741,6.4762,6.4771,6.4664,6.4664,6.4664,6.4663,0,6.4954,6.4952,6.4965,6.4936,6.4926,6.4934,6.4889,6.4885,6.4855,6.4827,6.483,6.4799,6.4779,6.4779,6.4748,6.4783,6.477,6.4738,6.4695,6.4757,6.4776,6.4784,6.4671,6.4669,6.4668,6.4667,0,0,6.5066,6.5013,6.5018,6.5005,6.4967,6.4964,6.4969,6.4951,6.495,6.4929,6.4932,6.4919,6.489,6.4876,6.4843,6.4853,6.4906,6.4819,6.4818,6.4836,6.4942,6.4967,6.4977,6.4882,6.4883,6.4884,6.4945,0,6.5126,6.5133,6.5093,6.511,6.5107,6.5055,6.506,6.5037,6.5012,6.5005,6.4976,6.4968,6.493,6.4922,6.4929,6.4898,6.4926,6.4893,6.4884,6.4884,6.4893,6.4986,6.5012,6.507,6.4952,6.4953,6.4954,0,6.5197,6.5182,6.5199,6.5162,6.516,6.5165,6.5146,6.5141,6.5115,6.5095,6.5082,6.5045,6.5047,6.5008,6.5011,6.4989,6.4983,6.4968,6.4969,6.4966,6.4922,6.4985,6.5088,6.5097,6.4965,6.4964,6.4964,0,6.5277,6.526,6.5269,6.5259,6.5216,6.5221,6.5204,6.5176,6.5168,6.5152,6.5147,6.5131,6.5122,6.511,6.507,6.5045,6.5079,6.5035,6.5062,6.5063,6.507,6.507,6.5173,6.5068,6.5068,6.5068,6.5067,0,6.5348,6.536,6.5304,6.531,6.5323,6.5277,6.5291,6.5268,6.5245,6.5244,6.5198,6.5199,6.5147,6.5142,6.511,6.5118,6.5114,6.5099,6.509,6.5102,6.5105,6.5097,6.5092,6.507,6.5069,6.5069,6.5069,0,6.5438,6.5401,6.5407,6.5367,6.5358,6.5369,6.5335,6.5338,6.5311,6.5311,6.5309,6.5265,6.5257,6.5217,6.5198,6.5178,6.5196,6.5179,6.5205,6.52,6.5229,6.5227,6.533,6.5341,6.523,6.5231,6.5232,0,6.5485,6.5494,6.5456,6.5454,6.5439,6.5434,6.5427,6.5383,6.5377,6.535,6.5357,6.5345,6.5334,6.5324,6.529,6.5276,6.5259,6.5296,6.5256,6.5269,6.5259,6.5259,6.526,6.5304,6.5306,6.5307,6.5308,0,6.5574,6.5556,6.5547,6.5533,6.5526,6.5513,6.5496,6.5497,6.5448,6.5444,6.5436,6.5427,6.5411,6.54,6.5381,6.5362,6.5327,6.5321,6.5326,6.5339,6.5353,6.5346,6.5228,6.5318,6.5317,6.5316,6.5316,6.5315,6.5644,6.565,6.5624,6.5617,6.5601,6.5587,6.5589,6.5562,6.5555,6.5539,6.5513,6.5509,6.5484,6.5456,6.5441,6.5437,6.5416,6.5424,6.5426,6.5429,6.5435,6.5355,6.5433,6.5433,6.5432,6.5432,6.5432,0,6.5729,6.5711,6.5705,6.5685,6.5679,6.5649,6.5629,6.5627,6.5624,6.5604,6.5595,6.5587,6.5577,6.5544,6.553,6.5534,6.5517,6.5532,6.5531,6.5527,6.5454,6.545,6.5545,6.5545,6.5545,6.5545,6.5545,6.5545,6.5773,6.5782,6.5762,6.5762,6.5743,6.574,6.5732,6.5719,6.5704,6.5697,6.5689,6.5668,6.5643,6.5628,6.5618,6.5609,6.5606,6.5626,6.5611,6.5543,6.5532,6.5522,6.5518,6.5625,6.5626,6.5684,6.5685,6.5685]}]]